Weather observations for the past three days for
Ormond Beach, Ormond Beach Municipal Airport
Metric (Imperial)
Date Time (edt) Wind (kph) Vis. (km) Weather Sky Cond. Temperature (ºC) Relative Humidity Wind Chill (°C) Heat Index (°C) Pressure Precipitation (cm)
Air Dwpt 6 hour altimeter (cm) sea level (mb) 1 hr 3 hr 6 hr
Max. Min.
03 18:53 SE 11 11.27 Partly Cloudy SCT018 28 27 94% 35 76.07 0.0
03 17:53 SE 7 11.27 A Few Clouds FEW020 29 27 89% 37 76.05 0.0
03 16:50 E 15 11.27 A Few Clouds FEW020 30 27 84% 39 76.02 0.0
03 15:50 E 15 11.27 A Few Clouds FEW019 30 27 84% 39 76.07 0.0
03 14:50 E 11 11.27 Showers in Vicinity BKN019 30 27 84% 39 76.1 0.0
03 13:50 E 9 11.27 Showers in Vicinity BKN018 29 27 89% 37 76.15 0.0
03 12:50 Vrbl 9 11.27 Showers in Vicinity BKN018 30 27 84% 39 76.2 0.0
03 11:50 E 13 11.27 Mostly Cloudy BKN018 29 28 94% 38 76.2 0.0
03 10:50 E 13 11.27 Mostly Cloudy BKN016 BKN026 30 28 89% 40 76.2 0.0
03 09:50 E 13 11.27 Mostly Cloudy BKN015 BKN027 30 28 89% 40 76.2 0.0
03 08:50 E 6 11.27 A Few Clouds FEW020 29 28 94% 38 76.17 0.0
03 07:50 Calm 11.27 A Few Clouds FEW020 26 26 100% 28 76.15 0.0
03 06:50 Calm 8.05 A Few Clouds with Haze FEW020 25 25 100% 25 76.1 0.0
02 18:50 E 15 11.27 Mostly Cloudy BKN019 BKN027 28 27 94% 35 76.12 0.0
02 17:50 E 15 11.27 Mostly Cloudy SCT016 BKN027 28 27 94% 35 76.12 0.0
02 16:50 E 19 G 30 11.27 Mostly Cloudy BKN017 BKN027 29 28 94% 38 76.12 0.0
02 15:50 E 19 G 30 11.27 Mostly Cloudy BKN019 30 27 84% 39 76.15 0.0
02 14:50 E 19 G 30 11.27 Mostly Cloudy BKN021 30 27 84% 39 76.15 0.0
02 13:50 E 15 11.27 Partly Cloudy SCT022 30 27 84% 39 76.23 0.0
02 12:50 NE 19 11.27 Partly Cloudy SCT021 31 28 84% 42 76.23 0.0
02 11:50 NE 19 11.27 Partly Cloudy SCT022 31 27 79% 41 76.28 0.0
02 10:50 NE 19 11.27 Showers in Vicinity SCT025 28 27 94% 35 76.28 0.0
02 09:50 NE 11 11.27 Showers in Vicinity SCT025 28 28 100% 36 76.25 0.0
02 09:30 Calm 8.05 Fog/Mist SCT025 27 27 100% 32 76.25 0.0
02 08:50 E 9 6.44 Light Rain BKN007 27 27 100% 32 76.28 0.0
02 07:45 Calm 8.05 Fog/Mist BKN007 26 26 100% 28 76.23 0.0
02 06:50 Calm 11.27 Partly Cloudy SCT027 26 26 100% 28 76.23 0.0
01 18:50 NE 19 11.27 A Few Clouds FEW015 29 27 89% 37 76.25 0.0
01 17:50 NE 19 G 28 11.27 Clear SKC 29 26 84% 36 76.2 0.0
01 16:50 NE 20 G 35 11.27 A Few Clouds FEW017 29 26 84% 36 76.23 0.0
01 15:50 NE 17 G 30 11.27 A Few Clouds FEW021 30 27 84% 39 76.25 0.0
01 14:50 NE 17 G 26 11.27 A Few Clouds FEW021 31 27 79% 41 76.25 0.0
01 13:50 NE 22 11.27 Fair CLR 30 27 84% 39 76.3 0.0
01 12:50 NE 20 G 30 11.27 Mostly Cloudy BKN019 30 27 84% 39 76.35 0.0
01 11:50 NE 20 G 30 11.27 Mostly Cloudy BKN019 30 27 84% 39 76.38 0.0
01 10:50 NE 15 11.27 Partly Cloudy SCT021 30 27 84% 39 76.35 0.0
01 09:50 NE 13 11.27 A Few Clouds FEW019 29 26 84% 36 76.33 0.0
01 08:50 NE 7 11.27 Fair CLR 27 27 100% 32 76.3 0.0
01 07:50 Calm 11.27 A Few Clouds FEW060 25 25 100% 25 76.28 0.0
01 06:50 Calm 11.27 A Few Clouds FEW050 24 24 100% 23 76.23 0.0
Date Time (edt) Wind (kph) Vis. (km) Weather Sky Cond. Air Dwpt Max. Min. Relative Humidity Wind Chill (°C) Heat Index (°C) altimeter (cm) sea level (mb) 1 hr 3 hr 6 hr
6 hour
Temperature (ºC) Pressure Precipitation (cm)